Regional Weather Roundup
Issued by NWS

Home | Current Version | Previous Version | Graphics & Text | Print | Product List | Glossary On
Versions: 1 2 3 4 5 6 7 8 9 10 11 12 13 14 15 16 17 18 19 20 21 22 23 24 25 26 27 28 29 30 31 32 33 34 35 36 37 38 39 40 41 42 43 44 45 46 47 48 49 50
000
ASUS45 KTFX 211004
RWRMT
MONTANA HOURLY WEATHER ROUNDUP
NATIONAL WEATHER SERVICE GREAT FALLS MT
304 AM MST FRI NOV 21 2014

NOTE: "FAIR" INDICATES FEW OR NO CLOUDS BELOW 12000 FEET WITH NO
SIGNIFICANT WEATHER AND/OR OBSTRUCTIONS TO VISIBILITY.

* THESE STATIONS ARE NOT UNDER NWS QUALITY CONTROL. THEY DO NOT
   REPORT WEATHER SUCH AS PRECIPITATION OR FOG.

MTZ001>007-043-211100-
WEST OF THE DIVIDE
CITY           SKY/WX    TMP DP  RH WIND       PRES   REMARKS
KALISPELL      FOG       28  27  96 CALM      29.92F VSB 3
MISSOULA       CLOUDY    27  27 100 CALM      29.97F
BUTTE          CLEAR     18  16  92 CALM      29.93S
MULLAN PASS    FOG       28  28 100 VRB7      29.88S VSB 1/2  WCI  21
* ESSEX        N/A       29  28  96 NW2        N/A
* LINCOLN      N/A       35  26  70 SW4G9      N/A
* LOOKOUT PASS N/A       32  32 100 S2         N/A
* POLSON       N/A       28  28 100 N1         N/A
* RONAN APT    CLOUDY    27  25  92 N/A        N/A
* SEELEY LAKE  N/A       27  25  92 NE1        N/A
* THOMP F APT  PTCLDY    22  16  78 NE4        N/A
* YAAK HILL    N/A       29  24  82 N/A        N/A
$$

MTZ008-052>055-211100-
SOUTHWEST MONTANA
CITY           SKY/WX    TMP DP  RH WIND       PRES   REMARKS
BOZEMAN        FAIR      18  14  84 S6        29.93S WCI  10
DILLON         CLEAR     27  18  69 S13       29.94S WCI  16
* W YELLOWSTON PTCLDY    28  26  92 SW3G8      N/A
* ENNIS APT    CLEAR     28  21  75 SE13       N/A   WCI  17
* THREE FORKS  CLEAR     25  25 100 N/A        N/A
* BOULDER HILL N/A       32  19  59 S3         N/A
* MONIDA PASS  N/A       13  12  96 N/A        N/A
* RAYNOLDS PAS N/A       22   1  40 SE6        N/A   WCI  14
* WHITEHALL    N/A       28  19  69 N5G11      N/A   WCI  22
* WISE RIVER   N/A       33  23  67 NW11       N/A   WCI  24
$$

MTZ009>010-012-014-046-048-049-054-211100-
EAST SLOPES AND CENTRAL MONTANA
CITY           SKY/WX    TMP DP  RH WIND       PRES   REMARKS
CUT BANK       CLOUDY    37  27  67 W26G32    29.69F WCI  25
GREAT FALLS    MOCLDY    37  27  67 SW16      29.76F WCI  28
HELENA         CLOUDY    39  27  62 NW6       29.89F WCI  35
MALMSTROM AFB  MOCLDY    39  27  62 SW24G30   29.79S WCI  28
* DEARBORN     N/A       45  25  45 S16G29     N/A
* EAST GLACIER N/A       35  25  67 W16G27     N/A   WCI  25
* MONARCH      N/A       35  17  48 SW26G31    N/A   WCI  22
* PENDROY      N/A       40  23  51 NW16       N/A   WCI  32
* SAINT MARY   N/A       35  28  76 S14G34     N/A   WCI  26
* SWEET GRASS  N/A       38  27  65 W24G34     N/A   WCI  27
$$

MTZ011-013-016-021-035-040-045-047-050-051-211100-
NORTH CENTRAL MONTANA
CITY           SKY/WX    TMP DP  RH WIND       PRES   REMARKS
HAVRE          CLOUDY    37  28  70 SW25      29.69F WCI  25
LEWISTOWN      CLEAR     34  25  70 SW12      29.77S WCI  25
* N BAR RANCH  CLEAR     36  18  48 NW8G15    29.77S WCI  30
* CHESTER      N/A       37  27  67 SW7        N/A   WCI  32
* DENTON       N/A       32  22  67 SE11       N/A   WCI  23
* GEYSER       N/A       35  19  52 NW10       N/A   WCI  27
* LOMA         N/A       39  26  60 SW9        N/A   WCI  33
$$

MTZ017>020-022>027-061-062-211100-
NORTHEAST MONTANA
CITY           SKY/WX    TMP DP  RH WIND       PRES   REMARKS
GLASGOW        PTCLDY    21  18  88 CALM      29.70F
GLENDIVE       MOCLDY    21  18  88 S6        29.76S WCI  13
JORDAN         PTCLDY    27  21  78 NW6       29.73F WCI  20
SIDNEY         PTCLDY    23  18  81 SE6       29.75F WCI  16
WOLF POINT     PTCLDY    18  14  84 W5        29.72F WCI  11
* BEAVER HILL  N/A       32  23  69 SW2        N/A
* CIRCLE       N/A       33  27  79 SW5        N/A   WCI  28
* LINDSAY DVD  N/A       38  26  62 SW15       N/A   WCI  29
* NAVAJO       N/A       28  23  81 W16        N/A   WCI  16
* SACO         N/A       12  10  92 NE6        N/A   WCI   2
$$

MTZ028>042-056>058-211100-
SOUTHCENTRAL AND SOUTHEAST MONTANA
CITY           SKY/WX    TMP DP  RH WIND       PRES   REMARKS
BAKER          PTCLDY    27  19  72 W3        29.78F
BILLINGS       FAIR      30  19  64 SW20      29.82F WCI  17
LIVINGSTON     CLEAR     41  23  49 SW24G35   29.87S
MILES CITY     PTCLDY    27  21  78 SW7       29.79S WCI  19
* LAUREL APT   CLEAR     27  16  63 N/A        N/A
* ALZADA       N/A       29  21  72 W3         N/A
* HYSHAM       N/A       33  17  52 W3G8       N/A
* LAME DEER    N/A       40  20  45 W8         N/A   WCI  35
* REED POINT   N/A       40  26  57 SW4G10     N/A
* ROSCOE HILL  N/A       40  13  33 S11G17     N/A   WCI  33
$$

REGIONAL REPORTS...DAKOTAS
CITY           SKY/WX    TMP DP  RH WIND       PRES   REMARKS
WILLISTON      PTCLDY    19  16  88 S6        29.72F WCI  11
DICKINSON      PTCLDY    30  21  69 W12       29.73F WCI  20
BEACH          MOCLDY    34  27  76 SW12      29.75F WCI  25
CROSBY         CLEAR     25  23  92 SW14      29.66F WCI  13
BISMARCK       PTCLDY    16  14  92 CALM      29.83F
GRAND FORKS    CLOUDY    16   7  67 S24G31    29.91F WCI  -2
FARGO          PTCLDY    12   5  73 S17G23    29.99F WCI  -5
BUFFALO SD     PTCLDY    19  16  88 W5        29.74S WCI  12
RAPID CITY     MOCLDY    27  21  78 CALM      29.83F
$$

REGIONAL REPORTS...WYOMING/IDAHO/WASHINGTON
CITY           SKY/WX    TMP DP  RH WIND       PRES   REMARKS
GILLETTE       MOCLDY    27  19  72 NE3       29.84S
SHERIDAN       MOCLDY    30  23  75 CALM      29.83F
CODY           PTCLDY    43  23  45 W13G18    29.88S
YELLOWSTONE LA PTCLDY    27  23  85 VRB7      30.00S WCI  19
SALMON         CLOUDY    23  18  81 CALM      30.04R
MULLAN PASS    FOG       28  28 100 VRB7      29.88S VSB 1/2  WCI  21
SAND POINT     N/A       32  32 100 CALM      29.96S VSB 1 3/4
SPOKANE        FOG       30  28  92 E3        29.95S
$$

REGIONAL REPORTS...ALBERTA
CITY           SKY/WX    TMP DP  RH WIND       PRES   REMARKS
EDMONTON       CLOUDY    37  32  82 N5        29.49F WCI  33

$$



USA.gov is the U.S. government's official web portal to all federal, state and local government web resources and services.